Location: Newark
(11.6000°N, 43.1667°E)
Time: 00:12:28
(UTC+00:00)

LightSail 2 - Pass Details

Date: 23 September 2019
Orbit: 707 x 722 km, 24.0° (Epoch: 19 October)

Event Time Altitude Azimuth Distance (km) Brightness Sun altitude
Exits shadow 01:16:26 26° 349° (N) 1,372 6.5 -25.3°
Drops below altitude 10° 01:20:37 10° 45° (NE) 2,158 8.3 -24.3°
Sets 01:23:25 0° 58° (ENE) 3,077 9.5 -23.6°
